AAL2581 KMKE-KDFW

Flight info

Callsign AAL2581
Flight time N/A
Altitude 36000
Route ACCRA5 ACCRA RBS STL KK45I FSM KOMMA RRNET SEEVR4
Aircraft B738/M-SDE2E3FGHIRWXY/LB1

Departure

Time 2026-04-22 23:30
Airport General Mitchell International Airport (KMKE)

Arrival

Time N/A
Airport Dallas Fort Worth International Airport (KDFW)
Time Latitude Longitude Altitude Speed Heading
2026-04-22 23:01 42.95475 -87.90636 675 ft 0 kts 92°
2026-04-22 23:19 42.95474 -87.90664 675 ft 4 kts 70°
2026-04-22 23:19 42.95460 -87.90694 673 ft 4 kts 45°
2026-04-22 23:19 42.95456 -87.90700 674 ft 1 kts 45°
2026-04-22 23:22 42.95459 -87.90692 673 ft 3 kts 62°
2026-04-22 23:23 42.95449 -87.90638 672 ft 10 kts 116°
2026-04-22 23:23 42.95408 -87.90532 672 ft 15 kts 158°
2026-04-22 23:23 42.95305 -87.90525 671 ft 15 kts 178°
2026-04-22 23:23 42.95219 -87.90470 672 ft 14 kts 112°
2026-04-22 23:24 42.95238 -87.90346 673 ft 13 kts 70°
2026-04-22 23:24 42.95267 -87.90228 673 ft 13 kts 72°
2026-04-22 23:24 42.95254 -87.90118 673 ft 13 kts 133°
2026-04-22 23:24 42.95196 -87.90031 675 ft 12 kts 132°
2026-04-22 23:25 42.95138 -87.89944 674 ft 14 kts 132°
2026-04-22 23:25 42.95060 -87.89836 672 ft 18 kts 144°
2026-04-22 23:25 42.94952 -87.89733 673 ft 20 kts 139°
2026-04-22 23:25 42.94812 -87.89715 675 ft 21 kts 187°
2026-04-22 23:26 42.94668 -87.89740 679 ft 21 kts 187°
2026-04-22 23:26 42.94563 -87.89853 681 ft 20 kts 239°
2026-04-22 23:26 42.94487 -87.89970 681 ft 13 kts 197°
2026-04-22 23:26 42.94439 -87.90074 679 ft 15 kts 251°
2026-04-22 23:27 42.94403 -87.90221 678 ft 18 kts 251°
2026-04-22 23:27 42.94358 -87.90402 677 ft 22 kts 252°
2026-04-22 23:27 42.94311 -87.90599 680 ft 22 kts 251°
2026-04-22 23:27 42.94264 -87.90793 681 ft 21 kts 252°
2026-04-22 23:28 42.94218 -87.90981 687 ft 21 kts 251°
2026-04-22 23:28 42.94173 -87.91162 690 ft 20 kts 251°
2026-04-22 23:28 42.94130 -87.91339 692 ft 19 kts 251°
2026-04-22 23:28 42.94089 -87.91510 693 ft 19 kts 252°
2026-04-22 23:29 42.94049 -87.91674 694 ft 18 kts 251°
2026-04-22 23:29 42.94018 -87.91775 691 ft 8 kts 229°
2026-04-22 23:29 42.93976 -87.91791 691 ft 9 kts 171°
2026-04-22 23:29 42.93926 -87.91725 684 ft 11 kts 97°
2026-04-22 23:30 42.93982 -87.91474 690 ft 59 kts 71°
2026-04-22 23:30 42.94187 -87.90638 680 ft 124 kts 71°
2026-04-22 23:30 42.94513 -87.89333 842 ft 160 kts 71°
2026-04-22 23:30 42.94836 -87.87887 1577 ft 158 kts 69°
2026-04-22 23:31 42.95287 -87.86463 2176 ft 169 kts 64°
2026-04-22 23:31 42.95821 -87.84969 2675 ft 184 kts 65°
2026-04-22 23:31 42.96424 -87.83286 2993 ft 209 kts 65°
2026-04-22 23:31 42.97085 -87.81422 3266 ft 229 kts 66°
2026-04-22 23:32 42.97788 -87.79368 3494 ft 249 kts 66°
2026-04-22 23:32 42.98552 -87.77120 3760 ft 269 kts 65°
2026-04-22 23:32 42.99332 -87.74809 4472 ft 272 kts 65°
2026-04-22 23:32 43.00125 -87.72451 4867 ft 272 kts 66°
2026-04-22 23:33 43.00918 -87.70097 4997 ft 273 kts 65°
2026-04-22 23:33 43.01670 -87.67709 4995 ft 273 kts 73°
2026-04-22 23:33 43.01790 -87.65180 5026 ft 273 kts 102°
2026-04-22 23:33 43.00975 -87.62837 5440 ft 279 kts 131°
2026-04-22 23:34 42.99428 -87.61268 6231 ft 280 kts 158°
2026-04-22 23:34 42.97503 -87.60802 6863 ft 285 kts 185°
2026-04-22 23:34 42.95624 -87.61618 7584 ft 286 kts 214°
2026-04-22 23:34 42.94176 -87.63469 8259 ft 287 kts 234°
2026-04-22 23:35 42.93032 -87.65722 8971 ft 290 kts 238°
2026-04-22 23:35 42.91949 -87.68016 9667 ft 293 kts 239°
2026-04-22 23:35 42.90849 -87.70374 10293 ft 299 kts 239°
2026-04-22 23:35 42.89685 -87.72857 10458 ft 321 kts 239°
2026-04-22 23:36 42.88436 -87.75497 10640 ft 341 kts 238°
2026-04-22 23:36 42.87112 -87.78271 10949 ft 355 kts 238°
2026-04-22 23:36 42.85742 -87.81118 11499 ft 360 kts 238°
2026-04-22 23:36 42.84375 -87.83947 12158 ft 363 kts 239°
2026-04-22 23:37 42.82970 -87.86846 12802 ft 367 kts 239°
2026-04-22 23:37 42.81554 -87.89765 13460 ft 371 kts 239°
2026-04-22 23:37 42.80119 -87.92720 14095 ft 375 kts 240°
2026-04-22 23:37 42.78673 -87.95693 14737 ft 378 kts 240°
2026-04-22 23:38 42.77228 -87.98662 15429 ft 379 kts 240°
2026-04-22 23:38 42.75765 -88.01665 16105 ft 381 kts 240°
2026-04-22 23:38 42.74291 -88.04690 16742 ft 384 kts 240°
2026-04-22 23:38 42.72818 -88.07708 17379 ft 387 kts 240°
2026-04-22 23:39 42.71295 -88.10759 17935 ft 392 kts 235°
2026-04-22 23:39 42.69247 -88.13274 17980 ft 410 kts 212°
2026-04-22 23:39 42.66494 -88.14663 17986 ft 434 kts 191°
2026-04-22 23:39 42.63451 -88.14841 18010 ft 451 kts 180°
2026-04-22 23:40 42.60275 -88.14712 17987 ft 457 kts 180°
2026-04-22 23:40 42.57097 -88.14619 17973 ft 455 kts 180°
2026-04-22 23:40 42.53926 -88.14582 17978 ft 454 kts 181°
2026-04-22 23:40 42.50787 -88.14489 17977 ft 454 kts 179°
2026-04-22 23:41 42.47618 -88.14337 17983 ft 454 kts 179°
2026-04-22 23:41 42.44448 -88.14188 17986 ft 455 kts 179°
2026-04-22 23:41 42.41281 -88.14041 17984 ft 455 kts 178°
2026-04-22 23:41 42.38173 -88.13477 17978 ft 456 kts 169°
2026-04-22 23:42 42.35071 -88.12517 17993 ft 456 kts 167°
2026-04-22 23:42 42.31963 -88.11564 17987 ft 457 kts 168°
2026-04-22 23:42 42.28876 -88.10697 17987 ft 457 kts 169°
2026-04-22 23:42 42.25744 -88.09896 17985 ft 457 kts 170°
2026-04-22 23:43 42.22608 -88.09126 17981 ft 457 kts 170°
2026-04-22 23:43 42.19474 -88.08360 17986 ft 458 kts 170°
2026-04-22 23:43 42.16339 -88.07588 17989 ft 458 kts 170°
2026-04-22 23:43 42.13247 -88.06817 18503 ft 454 kts 170°
2026-04-22 23:44 42.10179 -88.06048 19455 ft 442 kts 170°
2026-04-22 23:44 42.07177 -88.05296 20415 ft 431 kts 170°
2026-04-22 23:44 42.04229 -88.04563 21205 ft 427 kts 170°
2026-04-22 23:44 42.01291 -88.03845 21680 ft 431 kts 170°
2026-04-22 23:45 41.98348 -88.03130 22069 ft 437 kts 170°
2026-04-22 23:45 41.95345 -88.02400 22532 ft 440 kts 170°
2026-04-22 23:45 41.92305 -88.01845 23016 ft 441 kts 180°
2026-04-22 23:45 41.89231 -88.02034 23491 ft 442 kts 186°
2026-04-22 23:46 41.86151 -88.02414 23890 ft 445 kts 187°
2026-04-22 23:46 41.83097 -88.02838 24245 ft 447 kts 188°
2026-04-22 23:46 41.80049 -88.03704 24550 ft 449 kts 201°
2026-04-22 23:46 41.77222 -88.05454 24899 ft 448 kts 213°
2026-04-22 23:47 41.74696 -88.07889 25298 ft 445 kts 223°
2026-04-22 23:47 41.73119 -88.09658 25586 ft 445 kts 222°
2026-04-22 23:47 41.69962 -88.13192 26103 ft 447 kts 222°
2026-04-22 23:47 41.67557 -88.15867 26438 ft 449 kts 222°
2026-04-22 23:48 41.65955 -88.17637 26648 ft 451 kts 222°
2026-04-22 23:48 41.63518 -88.20318 26983 ft 453 kts 222°
2026-04-22 23:48 41.61070 -88.22996 27326 ft 455 kts 222°
2026-04-22 23:48 41.58611 -88.25676 27659 ft 457 kts 222°
2026-04-22 23:49 41.56161 -88.28340 27972 ft 459 kts 222°
2026-04-22 23:49 41.53679 -88.31036 28263 ft 461 kts 222°
2026-04-22 23:49 41.51173 -88.33753 28542 ft 464 kts 222°
2026-04-22 23:49 41.48660 -88.36477 28840 ft 465 kts 222°
2026-04-22 23:50 41.46160 -88.39183 29136 ft 467 kts 222°
2026-04-22 23:50 41.43633 -88.41916 29501 ft 466 kts 222°
2026-04-22 23:50 41.41110 -88.44640 29961 ft 465 kts 222°
2026-04-22 23:50 41.38598 -88.47352 30253 ft 465 kts 222°
2026-04-22 23:51 41.36081 -88.50066 30554 ft 465 kts 222°
2026-04-22 23:51 41.33558 -88.52784 30851 ft 465 kts 223°
2026-04-22 23:51 41.31072 -88.55459 31162 ft 465 kts 223°
2026-04-22 23:51 41.28551 -88.58170 31477 ft 464 kts 223°
2026-04-22 23:52 41.26037 -88.60870 31820 ft 463 kts 223°
2026-04-22 23:52 41.23532 -88.63558 32148 ft 462 kts 223°
2026-04-22 23:52 41.21060 -88.66207 32453 ft 461 kts 223°
2026-04-22 23:52 41.18563 -88.68881 32756 ft 460 kts 223°
2026-04-22 23:53 41.16073 -88.71545 33070 ft 460 kts 223°
2026-04-22 23:53 41.13577 -88.74212 33394 ft 458 kts 223°
2026-04-22 23:53 41.11088 -88.76870 33675 ft 458 kts 223°
2026-04-22 23:53 41.08602 -88.79522 33901 ft 459 kts 223°
2026-04-22 23:54 41.06110 -88.82177 34149 ft 459 kts 223°
2026-04-22 23:54 41.03648 -88.84797 34431 ft 457 kts 223°
2026-04-22 23:54 41.01174 -88.87427 34748 ft 454 kts 223°
2026-04-22 23:54 40.98713 -88.90038 35003 ft 448 kts 223°
2026-04-22 23:55 40.96263 -88.92646 34862 ft 455 kts 223°
2026-04-22 23:55 40.93788 -88.95274 35111 ft 454 kts 223°
2026-04-22 23:55 40.91324 -88.97883 35427 ft 452 kts 223°
2026-04-22 23:55 40.88900 -89.00444 35647 ft 451 kts 223°
2026-04-22 23:56 40.86437 -89.03048 35764 ft 454 kts 223°
2026-04-22 23:56 40.83956 -89.05668 35938 ft 454 kts 223°
2026-04-22 23:56 40.79001 -89.10894 35989 ft 460 kts 223°
2026-04-22 23:57 40.73958 -89.16205 35999 ft 466 kts 223°
2026-04-22 23:57 40.68876 -89.21541 35995 ft 469 kts 223°
2026-04-22 23:58 40.63748 -89.26913 35990 ft 470 kts 223°
2026-04-22 23:58 40.58644 -89.32251 35993 ft 470 kts 223°
2026-04-22 23:59 40.53515 -89.37603 35992 ft 469 kts 223°
2026-04-22 23:59 40.48419 -89.42912 35996 ft 468 kts 223°
2026-04-23 00:00 40.40755 -89.50878 36004 ft 467 kts 223°
2026-04-23 00:01 40.35672 -89.56147 36006 ft 467 kts 223°
2026-04-23 00:01 40.30550 -89.61447 36003 ft 467 kts 223°
2026-04-23 00:02 40.25439 -89.66725 36002 ft 467 kts 223°
2026-04-23 00:02 40.20351 -89.71968 36003 ft 467 kts 223°
2026-04-23 00:03 40.15224 -89.77242 36003 ft 467 kts 223°
2026-04-23 00:03 40.10112 -89.82490 36015 ft 468 kts 223°
2026-04-23 00:04 40.05018 -89.87708 36014 ft 468 kts 223°
2026-04-23 00:04 39.99887 -89.92955 36009 ft 468 kts 222°
2026-04-23 00:05 39.94751 -89.98195 36017 ft 468 kts 222°
2026-04-23 00:05 39.89617 -90.03424 36011 ft 467 kts 222°
2026-04-23 00:06 39.84522 -90.08603 36014 ft 467 kts 222°
2026-04-23 00:06 39.79385 -90.13814 36008 ft 467 kts 222°
2026-04-23 00:07 39.74254 -90.19010 36014 ft 467 kts 222°
2026-04-23 00:07 39.69142 -90.24176 36015 ft 467 kts 222°
2026-04-23 00:08 39.64032 -90.29331 36018 ft 467 kts 222°
2026-04-23 00:08 39.58890 -90.34507 36016 ft 467 kts 221°
2026-04-23 00:09 39.53734 -90.39687 36012 ft 467 kts 221°
2026-04-23 00:09 39.48623 -90.44812 36021 ft 467 kts 221°
2026-04-23 00:10 39.43491 -90.49950 36022 ft 466 kts 221°
2026-04-23 00:10 39.38341 -90.55094 36023 ft 466 kts 221°
2026-04-23 00:11 39.33193 -90.60227 36014 ft 466 kts 221°
2026-04-23 00:11 39.28078 -90.65318 36028 ft 466 kts 221°
2026-04-23 00:12 39.22925 -90.70436 36028 ft 466 kts 221°
2026-04-23 00:12 39.17799 -90.75518 36024 ft 467 kts 221°
2026-04-23 00:13 39.12642 -90.80621 36027 ft 466 kts 221°
2026-04-23 00:13 39.07526 -90.85674 36020 ft 465 kts 220°
2026-04-23 00:14 39.02387 -90.90740 36025 ft 464 kts 220°
2026-04-23 00:14 38.97274 -90.95771 36024 ft 464 kts 220°
2026-04-23 00:15 38.92137 -91.00817 36028 ft 464 kts 220°
2026-04-23 00:15 38.87031 -91.05822 36022 ft 464 kts 220°
2026-04-23 00:16 38.81887 -91.10856 36033 ft 464 kts 220°
2026-04-23 00:16 38.76744 -91.15879 36027 ft 464 kts 220°
2026-04-23 00:17 38.71629 -91.20864 36025 ft 463 kts 220°
2026-04-23 00:17 38.66485 -91.25870 36033 ft 463 kts 220°
2026-04-23 00:18 38.61352 -91.30856 36023 ft 463 kts 220°
2026-04-23 00:18 38.56242 -91.35810 36036 ft 463 kts 220°
2026-04-23 00:19 38.51094 -91.40792 36028 ft 463 kts 220°
2026-04-23 00:19 38.45977 -91.45734 36048 ft 463 kts 220°
2026-04-23 00:20 38.40826 -91.50701 36034 ft 463 kts 220°
2026-04-23 00:20 38.35671 -91.55661 36053 ft 463 kts 219°
2026-04-23 00:21 38.30560 -91.60571 36032 ft 462 kts 219°
2026-04-23 00:21 38.25411 -91.65508 36039 ft 462 kts 219°
2026-04-23 00:22 38.20303 -91.70397 36038 ft 461 kts 219°
2026-04-23 00:22 38.15163 -91.75309 36044 ft 461 kts 219°
2026-04-23 00:23 38.10057 -91.80179 36047 ft 461 kts 219°
2026-04-23 00:23 38.04910 -91.85079 36047 ft 461 kts 219°
2026-04-23 00:24 37.99778 -91.89956 36035 ft 462 kts 219°
2026-04-23 00:24 37.94634 -91.94834 36029 ft 461 kts 219°
2026-04-23 00:25 37.89494 -91.99701 36013 ft 461 kts 219°
2026-04-23 00:25 37.84389 -92.04527 36021 ft 460 kts 219°
2026-04-23 00:26 37.79244 -92.09382 36019 ft 460 kts 219°
2026-04-23 00:26 37.74098 -92.14229 36019 ft 460 kts 219°
2026-04-23 00:27 37.68981 -92.19039 36013 ft 461 kts 219°
2026-04-23 00:27 37.63819 -92.23884 36019 ft 461 kts 219°